Location: Walton
(43.6794°N, 81.3017°W)
Time: 01:13:52
(UTC+00:00)

Cosmos 1092 Rocket - Pass Details

Date: 09 December 2025
Orbit: 953 x 995 km, 83.0° (Epoch: 17 January)

Event Time Altitude Azimuth Distance (km) Brightness Sun altitude
Rises 10:39:23 0° 178° (S) 3,685 7.2 -22.3°
Reaches altitude 10° 10:41:54 10° 177° (S) 2,737 6.5 -21.8°
Maximum altitude 10:48:09 71° 94° (E) 1,034 4.2 -20.7°
Drops below altitude 10° 10:54:21 10° 12° (NNE) 2,727 6.3 -19.6°
Sets 10:56:52 0° 11° (N) 3,672 7.0 -19.2°
